www.pogodaiklimat.ru

Погода и климат >> Архив погоды >> Россия >> Эвенкия >> Кислокан


ПОГОДА в Кислокане

  • Прогноз погоды в Кислокане
  • Монитор погоды в Кислокане
  • Климат города

АРХИВ ПОГОДЫ в Кислокане

Время (UTC), дата Ветер
(напр.,м/с)
 
Видим.   Явления Облачность Т
(С)
Тd
(С)
f
(%)
Тe
(С)
Тes
(С)
Комфортность P
(гПа)
Po
(гПа)
Тmin
(С)
Tmax
(С)
R
(мм)
R24
(мм)
S
(см)
09 19.09 С 2 50 км 10/3 1000 м
[Cu Sc Ci sp]
+12.3 -3.8 32 +12 +12 1020.2 994.9
12 19.09 штиль 0 н/о 10/8 1000 м
[Sc Ci sp]
+4.4 -1.0 68 +4 +4 1020.8 994.8 +12.6
15 19.09 штиль 0 н/о 10/10 1000 м
[Sc]
+0.8 -2.1 81 -0 -0 1021.3 994.9
18 19.09 СВ 1 н/о 10/10 1000 м
[Sc]
+3.3 -0.2 78 +2 +2 1021.3 995.2
21 19.09 штиль 0 н/о 10/10 600 м
[Cb cap]
+3.8 +0.1 77 +3 +3 1020.5 994.4
00 20.09 С 1 50 км 10/10 600 м
[Cu Sc]
+3.8 -0.5 73 +3 +3 1020.9 994.8 +2.0
03 20.09 С 2 50 км 9/8 1000 м
[Sc Ci fib]
+8.6 -2.0 47 +7 +8 1020.8 995.1
06 20.09 СЗ 1 50 км 8/8 1000 м
[Cb cap]
+11.0 -0.4 45 +11 +12 1020.4 995.0
09 20.09 С 1 50 км 8/8 600 м
[Cb cap]
+11.6 +0.2 45 +12 +12 1020.8 995.4
12 20.09 СВ 1 н/о 9/8 600 м
[Sc Ci sp]
+2.8 -1.7 72 +1 +1 1022.7 996.5 +12.7
15 20.09 СВ 1 н/о 1/1 1000 м
[Sc]
-2.3 -3.2 94 -5 -5 1024.4 997.5
18 20.09 штиль 0 н/о ясно -4.6 -5.2 96 -6 -6 1025.5 998.4
21 20.09 штиль 0 н/о 4/0 2000 м
[Ac lent]
-6.0 -6.8 94 -7 -7 1026.2 998.9
00 21.09 штиль 0 50 км 10/1 1000 м
[Sc Ci sp]
-4.9 -5.5 96 -6 -6 1027.0 999.8 -7.4
03 21.09 Ю 1 50 км 10/1 1000 м
[Sc Ci sp]
+5.4 -0.7 65 +5 +7 1026.2 1000.1
06 21.09 З 3 50 км 9/9 1000 м
[Sc]
+11.9 -0.7 42 +11 +11 1024.6 999.2
09 21.09 СЗ 2 50 км 8/3 1000 м
[Sc Ci fib]
+12.4 -0.6 41 +12 +13 1023.9 998.5
12 21.09 СЗ 1 н/о 8/4 1000 м
[Sc Ci fib]
+5.0 -0.3 69 +4 +4 1024.9 998.8 +12.8
15 21.09 штиль 0 н/о 10/4 1000 м
[Sc Ci fib]
+2.4 -0.3 82 +1 +1 1024.6 998.2
18 21.09 В 1 н/о 8/4 1000 м
[Sc Ci fib]
+2.0 -0.2 85 0 0 1024.4 998.0
21 21.09 штиль 0 н/о 10/3 1000 м
[Sc Ci fib]
+1.2 +0.1 92 0 0 1024.6 998.1
00 22.09 З 1 50 км 10/5 1000 м
[Sc Ac trans Ci sp]
+1.6 +0.5 92 -0 -0 1024.8 998.3 +0.5
03 22.09 З 3 50 км 10/4 1000 м
[Sc Ci sp]
+11.4 +3.5 58 +10 +11 1023.1 997.6
06 22.09 З 4 50 км 10/6 600 м
[Cb cap Ac trans Ci sp]
+13.4 +1.9 46 +12 +13 1021.7 996.5
09 22.09 З 3 50 км 8/1 1000 м
[Sc Ac lent Ci sp]
+13.6 +1.6 44 +13 +13 1021.0 995.8
12 22.09 штиль 0 н/о 4/3 1000 м
[Sc Ci fib]
+2.4 -1.2 77 +2 +2 1021.7 995.5 +13.6
15 22.09 штиль 0 н/о 3/1 1000 м
[Sc Ci fib]
-1.6 -2.8 92 -3 -3 1022.1 995.5
18 22.09 В 1 н/о 3/1 1000 м
[Sc Ci fib]
-2.6 -3.6 93 -5 -5 1022.0 995.3
21 22.09 штиль 0 н/о 1/1 1000 м
[Sc]
-4.2 -5.1 93 -5 -5 1021.8 994.9
00 23.09 штиль 0 4000 м дымка 4/0
[Ci sp]
-4.4 -5.1 95 -6 -5 1021.8 994.9 -5.6
03 23.09 В 1 50 км 3/0
[Ci fib]
+6.7 +2.1 72 +6 +9 1019.9 994.0
06 23.09 З 3 50 км 3/0
[Ci fib]
+16.2 +1.2 36 +16 +18 1017.0 992.2
09 23.09 З 3 50 км 4/0
[Ci fib]
+17.0 +1.2 34 +17 +18 1015.4 990.7
12 23.09 штиль 0 н/о 3/1 1000 м
[Sc Ac lent Ci sp]
+5.0 -0.9 66 +4 +4 1016.3 990.5 +17.2
15 23.09 штиль 0 н/о 3/0 2000 м
[Ac trans Ci sp]
-1.1 -2.9 88 -2 -2 1016.8 990.3
18 23.09 штиль 0 н/о 8/0 2000 м
[Ac trans Ci sp]
-3.2 -3.6 97 -4 -4 1016.2 989.5
21 23.09 штиль 0 н/о 3/1 1000 м
[Sc Ac trans]
-4.2 -4.7 96 -5 -5 1015.5 988.7
00 24.09 штиль 0 50 км 6/0
[Ci sp]
-4.4 -5.3 93 -6 -5 1015.0 988.2 -6.1
03 24.09 В 1 50 км 8/0
[Cs]
+7.2 +1.3 66 +7 +9 1012.7 987.2
06 24.09 З 4 50 км 5/0 2000 м
[Ac lent Ci fib]
+16.0 +0.9 36 +15 +17 1010.4 985.7
09 24.09 З 2 50 км 8/8 1000 м
[Cu Sc]
+15.8 +1.5 38 +16 +16 1009.6 984.9
12 24.09 штиль 0 н/о 8/3 1000 м
[Sc Ci sp]
+8.7 +1.7 61 +8 +8 1010.0 984.7 +17.4
15 24.09 СВ 1 н/о 10/0
[Cs]
+3.2 0.0 80 +2 +2 1010.3 984.4
18 24.09 штиль 0 н/о 10/0
[Cs]
-0.4 -1.9 90 -2 -2 1010.3 984.0
21 24.09 штиль 0 н/о 10/3 1000 м
[Sc Cs]
-0.4 -2.2 88 -2 -2 1009.8 983.5
00 25.09 ЮВ 2 50 км 10/9 600 м
[Cb cap Ac trans]
+3.4 +0.5 81 +1 +1 1009.2 983.3 -2.2
03 25.09 ЮВ 2 50 км в посл. час ливневой дождь 10/10 600 м
[Cb cap]
+5.1 +1.9 80 +3 +3 1008.0 982.4
06 25.09 В 4 50 км {ливн. осадки} 10/8 600 м
[Cb cap Ac trans]
+7.7 +2.4 69 +5 +5 1006.4 981.1
09 25.09 В 2 10 км слабый ливневой дождь 10/10 600 м
[Cb cap]
+7.8 +6.3 90 +6 +6 1006.1 980.8
12 25.09 В 2 н/о в посл. час ливневой дождь 10/10 600 м
[Cb cap]
+7.8 +6.7 93 +6 +6 1005.4 980.1 +8.6 4
15 25.09 Ю 2 н/о 8/8 600 м
[Cb cap]
+8.5 +7.0 90 +7 +7 1005.3 980.1
18 25.09 З 1 н/о {ливн. осадки} 8/8 600 м
[Cb cap]
+8.3 +6.8 90 +7 +7 1005.3 980.0
21 25.09 СВ 1 н/о 9/9 600 м
[Cb cap]
+2.4 +1.6 94 +1 +1 1005.9 980.1
00 26.09 50 км слабый ливневой дождь 10/10 600 м
[Cb cap]
+5.4 +4.9 97 1006.4 980.8 +2.0 0.0
03 26.09 штиль 0 50 км {ливн. осадки} 10/10 600 м
[Cb cap]
+8.1 +7.2 94 +7 +7 1006.4 981.1

 

Местоположение метеостанции Кислокан (Эвенкия, Россия): широта 63.58 долгота 103.90 высота над уровнем моря 211 м.

В архиве по умолчанию представлена погода в Кислокане за последнюю неделю. Архивные данные за месяц целиком и за предыдущие месяцы, начиная с января 2011 года, Вы можете получить, выбрав интересующий диапазон дат из раскрывающегося списка и нажав кнопку "Ввод!".


*Определитесь, кто Вы:
робот инопланетянин человек

Внимание! Время в таблицах - всемирное. Для получения местного времени необходимо прибавить поправку, которая в Кислокане равна 7 ч.

Смотрите также архив погоды в соседних городах и на ближайших метеорологических станциях:

Погода в Кербо (Эвенкия, Россия) (170 км)
Погода в Туре (Эвенкия, Россия) (190 км)
Погода в Стрелке-Чуне (Эвенкия, Россия) (211 км)
Погода в Тембенчи (Эвенкия, Россия) (285 км)
Погода в Муторае (Эвенкия, Россия) (308 км)
Погода в Ербогачене (Иркутская область, Россия) (332 км)
Погода в Ванаваре (Эвенкия, Россия) (371 км)
Погода в Туой-Хае (Якутия, Россия) (386 км)
Погода в Чернышевском (Якутия, Россия) (429 км)
Погода в Хабардино (Якутия, Россия) (433 км)

Пояснения к столбцам:

Ветер - указаны скорость ветра в м/с - средняя за 10 мин, порывы в срок и между сроками (в фигурных скобках) и направление, откуда дует ветер: С - северный, СВ - северо-восточный, В - восточный, ЮВ - юго-восточный, Ю - южный, ЮЗ - юго-западный, З - западный, СЗ - северо-западный.
Видимость - горизонтальная дальность видимости в метрах или километрах. При видимости от 1 до 10 км при отсутствии осадков обычно наблюдается дымка, при ухудшении видимости до 1 км и менее - туман. В сухую погоду видимость может ухудшаться дымом, пылью или мглою.
Явления - указаны атмосферные явления, наблюдавшиеся в срок или в последний час перед сроком; фигурными скобками обозначены явления, наблюдавшиеся между сроками (за 1-3 часа до срока); квадратными скобками обозначены град или гололедные отложения с указанием их диаметра в мм.
Облачность - указаны через наклонную черту общая и нижняя облачность в баллах и высота нижней границы облаков в метрах; квадратными скобками обозначены формы облаков: Ci - перистые, Cs - перисто-слоистые, Cc - перисто-кучевые, Ac - высококучевые, As - высокослоистые, Sc - слоисто-кучевые, Ns - слоисто-дождевые, Cu - кучевые, Cb - кучево-дождевые. Подробнее классификацию облаков см. в Атласе облаков (PDF).
T - Температура воздуха - температура, измеренная на высоте 2 м над землей.
Td - Температура точки росы - температура, при понижении до которой содержащийся в воздухе водяной пар достигнет насыщения.
f - Относительная влажность воздуха - влажноcть воздуха, измеренная на высоте 2 м над землей.
Te - Эффективная температура - температура, которую ощущает одетый по сезону человек в тени. Характеристика душности погоды. При расчете учитывается влияние влажности воздуха и скорости ветра на теплоощущения человека.
Tes - Эффективная температура на солнце - температура, которую ощущает человек, с поправкой на солнечный нагрев. Характеристика знойности погоды. Зависит от высоты солнца над горизонтом, облачности и скорости ветра. Ночью, в пасмурную погоду, а также при ветре 12 м/с и более поправка равна нулю.
P - Атмосферное давление - приведенное к уровню моря атмосферное давление.
Po - Атмосферное давление - измеренное на уровне метеостанции атмосферное давление.
Tmin - Минимальная температура - минимум температуры воздуха на высоте 2 м над землей.
Tmax - Максимальная температура - максимум температуры воздуха на высоте 2 м над землей.
R - Количество осадков - Количество выпавших осадков за период времени, мм. При наведении курсора мыши на число - период времени, за который выпало указанное количество осадков.
R24 - Количество осадков - Количество выпавших осадков за 24 часа, мм.
S - Снежный покров - Высота снежного покрова, см. При наведении курсора мыши на число - состояние снежного покрова и степень покрытия местности в баллах.